This is the latest recevied weather packets stored in our database for station/object KD4IZ-13. If no packets are shown the sender has not sent any weather packets the latest 10 day(s).
| Time | Temp. | Humidity | Pressure | Rain* | Wind** | Luminosity | Snow |
|---|---|---|---|---|---|---|---|
| 1777681216 | 14.44° C | 64% | 1012.7 hPa | 0 mm | - | 0 W/m² | - |
| 1777680914 | 14.44° C | 64% | 1012.2 hPa | 0 mm | - | 0 W/m² | - |
| 1777680611 | 14.44° C | 63% | 1012.3 hPa | 0 mm | - | 0 W/m² | - |
| 1777680309 | 14.44° C | 63% | 1012.1 hPa | 0 mm | - | 0 W/m² | - |
| 1777680006 | 14.44° C | 62% | 1012 hPa | 0 mm | - | 0 W/m² | - |
| 1777679702 | 14.44° C | 62% | 1012 hPa | 0 mm | - | 1 W/m² | - |
| 1777679396 | 14.44° C | 62% | 1012.1 hPa | 0 mm | - | 3 W/m² | - |
| 1777679093 | 14.44° C | 61% | 1012 hPa | 0 mm | - | 4 W/m² | - |
| 1777678792 | 15° C | 61% | 1012.1 hPa | 0 mm | - | 6 W/m² | - |
| 1777678489 | 15° C | 60% | 1012.1 hPa | 0 mm | - | 8 W/m² | - |
| 1777678185 | 15° C | 60% | 1012.2 hPa | 0 mm | - | 10 W/m² | - |
| 1777677882 | 15° C | 59% | 1012.3 hPa | 0 mm | - | 9 W/m² | - |
| 1777677579 | 15° C | 58% | 1012 hPa | 0 mm | - | 10 W/m² | - |
| 1777677278 | 15° C | 58% | 1012.2 hPa | 0 mm | - | 7 W/m² | - |
| 1777676975 | 15° C | 58% | 1012.2 hPa | 0 mm | - | 7 W/m² | - |
| 1777676674 | 15.56° C | 58% | 1012 hPa | 0 mm | - | 10 W/m² | - |
| 1777676371 | 15.56° C | 57% | 1012.1 hPa | 0 mm | - | 8 W/m² | - |
| 1777676069 | 15.56° C | 58% | 1012 hPa | 0 mm | - | 11 W/m² | - |
| 1777675764 | 15.56° C | 57% | 1012 hPa | 0 mm | - | 19 W/m² | - |
| 1777675462 | 15.56° C | 57% | 1011.8 hPa | 0 mm | - | 37 W/m² | - |
| 1777675159 | 16.11° C | 56% | 1012 hPa | 0 mm | - | 34 W/m² | - |
| 1777674855 | 15.56° C | 56% | 1012.2 hPa | 0 mm | - | 43 W/m² | - |
| 1777674551 | 15.56° C | 57% | 1012 hPa | 0 mm | - | 60 W/m² | - |
| 1777674249 | 15.56° C | 55% | 1011.8 hPa | 0 mm | - | 75 W/m² | - |
| 1777673945 | 16.11° C | 55% | 1012 hPa | 0 mm | - | 69 W/m² | - |
* Rain latest hour (hover to see other rain measurements)
** Current wind speed in m/s (hover to see current wind gust speed)